This is the latest recevied weather packets stored in our database for station/object K7FRY. If no packets are shown the sender has not sent any weather packets the latest 10 day(s).
| Time | Temp. | Humidity | Pressure | Rain* | Wind** | Luminosity | Snow |
|---|---|---|---|---|---|---|---|
| 1777290615 | 10° C | 52% | 1014.9 hPa | 0 mm | - | 0 W/m² | - |
| 1777290311 | 10° C | 52% | 1014.7 hPa | 0 mm | - | 0 W/m² | - |
| 1777290007 | 10° C | 52% | 1014.6 hPa | 0 mm | - | 0 W/m² | - |
| 1777289703 | 10° C | 52% | 1014.8 hPa | 0 mm | - | 0 W/m² | - |
| 1777289399 | 10° C | 52% | 1015 hPa | 0 mm | - | 0 W/m² | - |
| 1777289096 | 10° C | 52% | 1014.8 hPa | 0 mm | - | 0 W/m² | - |
| 1777288792 | 10.56° C | 51% | 1014.7 hPa | 0 mm | - | 0 W/m² | - |
| 1777288490 | 11.11° C | 50% | 1014.7 hPa | 0 mm | - | 0 W/m² | - |
| 1777288185 | 11.11° C | 50% | 1014.6 hPa | 0 mm | - | 0 W/m² | - |
| 1777287882 | 11.11° C | 50% | 1014.6 hPa | 0 mm | - | 0 W/m² | - |
| 1777287579 | 10.56° C | 51% | 1014.7 hPa | 0 mm | - | 0 W/m² | - |
| 1777287275 | 11.11° C | 50% | 1014.6 hPa | 0 mm | - | 0 W/m² | - |
| 1777286972 | 10.56° C | 50% | 1014.2 hPa | 0 mm | - | 0 W/m² | - |
| 1777286669 | 10.56° C | 51% | 1014.7 hPa | 0 mm | - | 0 W/m² | - |
| 1777286367 | 10.56° C | 50% | 1014.8 hPa | 0 mm | - | 0 W/m² | - |
| 1777286063 | 11.11° C | 49% | 1014.6 hPa | 0 mm | - | 0 W/m² | - |
| 1777285761 | 11.67° C | 48% | 1014.5 hPa | 0 mm | - | 0 W/m² | - |
| 1777285458 | 12.22° C | 48% | 1014.4 hPa | 0 mm | - | 0 W/m² | - |
| 1777285154 | 12.78° C | 47% | 1014.7 hPa | 0 mm | - | 0 W/m² | - |
| 1777284852 | 12.22° C | 48% | 1014.5 hPa | 0 mm | - | 0 W/m² | - |
| 1777284549 | 12.78° C | 46% | 1014.5 hPa | 0 mm | - | 0 W/m² | - |
| 1777284245 | 13.33° C | 46% | 1014.4 hPa | 0 mm | - | 0 W/m² | - |
| 1777283943 | 12.78° C | 46% | 1014.2 hPa | 0 mm | - | 0 W/m² | - |
| 1777283639 | 12.22° C | 47% | 1014.5 hPa | 0 mm | - | 0 W/m² | - |
| 1777283338 | 12.22° C | 47% | 1014.5 hPa | 0 mm | - | 0 W/m² | - |
* Rain latest hour (hover to see other rain measurements)
** Current wind speed in m/s (hover to see current wind gust speed)